{"data":{"norad_id":62899,"intl_designator":"2025-024W","name":"STARLINK-32661","alt_names":[],"object_type":"PAYLOAD","status":"ACTIVE","operator":null,"country":"US","launch_date":"2025-02-04","launch_site_code":"AFETR","launch_vehicle":null,"mission":null,"orbit_class":"UNKNOWN","rcs_meters":null,"size_class":null,"mass_kg":null,"dimensions":null,"purposes":["comms"],"wikipedia_slug":null,"has_3d_model":false,"image_url":null,"decayed_at":null,"tle_current":{"epoch":"2026-05-24T15:35:06.628992Z","epoch_age_seconds":98503,"freshness":"FRESH","line1":"1 62899U 25024W   26144.64938228  .00011310  00000+0  41974-3 0  9999","line2":"2 62899  43.0004 256.3276 0001534 281.2671  78.8008 15.27591484 73881","mean_motion":15.27591484,"eccentricity":0.0001534,"inclination_deg":43.0004,"raan_deg":256.3276,"arg_perigee_deg":281.2671,"mean_anomaly_deg":78.8008,"bstar":0.00041974,"rev_number":7388,"period_min":94.266040042941,"perigee_km":481.96220835557,"apogee_km":484.0672096999,"semimajor_km":6861.1517090277,"source":"CELESTRAK","updated_at":"2026-05-25T13:38:19.792607Z"}}}